Florala, AL

5:40 PM CDT on April 22, 2018 (GMT -0500)
Florala

Weather History for K0J4 - December, 2012

Change the Weather History Date:

Sunday, December 30, 2012

  Actual Average (KCEW) Record (KCEW)
Temperature  
Mean Temperature 40 °F -  
Max Temperature 52 °F 58 °F 78 °F (1996)
Min Temperature 28 °F 43 °F 18 °F (1983)
Degree Days  
Heating Degree Days 25    
Moisture  
Dew Point 27 °F    
Average Humidity 68    
Maximum Humidity 92    
Minimum Humidity 37    
Precipitation  
Precipitation 0.00 in - - ()
Sea Level Pressure  
Sea Level Pressure 30.41 in    
Wind  
Wind Speed 4 mph (NNE)    
Max Wind Speed 9 mph    
Max Gust Speed -    
Averages and records for this station are not official NWS values.
T = Trace of Precipitation, MM = Missing Value Source: NWS Daily Summary

Daily Weather History Graph

Daily Weather History Graph

Search for Another Location

Airport or City:

Astronomy

Dec. 30, 2012 Rise Set
Actual Time 6:43 AM CST 4:53 PM CST
Civil Twilight 6:16 AM CST 5:19 PM CST
Nautical Twilight 5:46 AM CST 5:49 PM CST
Astronomical Twilight 5:16 AM CST 6:19 PM CST
Moon 7:13 PM CST (12/30) 8:00 AM CST (12/30)
Length of Visible Light 11h 03m
Length of Day
10h 09m
Waning Gibbous, 95% of the Moon is Illuminated
Dec 30
Waning Gibbous
Jan 4
Last Quarter
Jan 11
New
Jan 18
First Quarter
Jan 26
Full

Hourly Weather History & Observations

Time (CST) Temp. Windchill Dew Point Humidity Pressure Visibility Wind Dir Wind Speed Gust Speed Precip Events Conditions
12:22 AM 35.6 °F 29.9 °F 26.6 °F 70% 30.35 in - North 6.9 mph - N/A   Mostly Cloudy
12:31 AM 35.6 °F 30.7 °F 26.6 °F 70% 30.35 in - North 5.8 mph - N/A   Scattered Clouds
12:58 AM 35.1 °F 28.6 °F 26.1 °F 70% 30.36 in - North 8.1 mph - N/A   Clear
1:58 AM 33.1 °F 28.7 °F 25.0 °F 72% 30.38 in - North 4.6 mph - N/A   Clear
2:58 AM 32.0 °F 28.7 °F 25.0 °F 75% 30.39 in - North 3.5 mph - N/A   Clear
3:58 AM 30.0 °F - 24.1 °F 79% 30.38 in - Calm Calm - N/A   Clear
4:58 AM 28.9 °F - 24.1 °F 82% 30.40 in - Calm Calm - N/A   Clear
5:58 AM 28.9 °F - 24.1 °F 82% 30.44 in - Calm Calm - N/A   Clear
6:58 AM 28.0 °F - 24.1 °F 85% 30.46 in - Calm Calm - N/A   Clear
7:58 AM 32.0 °F - 26.1 °F 79% 30.47 in - Calm Calm - N/A   Clear
8:58 AM 36.0 °F 29.0 °F 25.0 °F 64% 30.50 in - North 9.2 mph - N/A   Clear
9:58 AM 39.9 °F 33.9 °F 25.0 °F 55% 30.49 in - North 9.2 mph - N/A   Clear
10:58 AM 44.1 °F 39.5 °F 26.1 °F 49% 30.48 in - North 8.1 mph - N/A   Clear
11:58 AM 46.9 °F - 25.0 °F 42% 30.45 in - North 5.8 mph - N/A   Clear
12:58 PM 50.0 °F - 25.0 °F 38% 30.42 in - North 8.1 mph - N/A   Clear
1:58 PM 52.0 °F - 26.1 °F 37% 30.40 in - North 6.9 mph - N/A   Clear
2:58 PM 52.0 °F - 26.1 °F 37% 30.38 in - ENE 6.9 mph - N/A   Clear
3:58 PM 51.1 °F - 27.0 °F 39% 30.38 in - NNE 4.6 mph - N/A   Clear
4:58 PM 44.1 °F 42.5 °F 30.9 °F 60% 30.38 in - North 3.5 mph - N/A   Clear
5:58 PM 39.0 °F - 30.9 °F 73% 30.39 in - Calm Calm - N/A   Clear
6:58 PM 36.0 °F 33.3 °F 30.0 °F 79% 30.41 in - North 3.5 mph - N/A   Clear
7:58 PM 35.1 °F - 30.0 °F 82% 30.42 in - Calm Calm - N/A   Clear
8:58 PM 36.0 °F - 30.0 °F 79% 30.42 in - Calm Calm - N/A   Clear
9:58 PM 34.0 °F - 28.9 °F 82% 30.42 in - Calm Calm - N/A   Clear
10:58 PM 32.0 °F - 30.0 °F 92% 30.40 in - Calm Calm - N/A   Clear
11:58 PM 32.0 °F - 28.9 °F 88% 30.39 in - Calm Calm - N/A   Clear